Theta_e
287 287 287 286 286 286 286 286 285 285 285 284 284 284 284 284 284 284 284 284 284 284 284 284 284 284 284 284 284 284 284 283 283 283 283 284 284 284 284 284 284 284
287 287 286 286 286 286 286 285 285 285 284 284 284 284 284 284 284 284 284 284 284 284 284 284 284 283 283 283 283 283 283 283 283 283 283 283 283 283 283 283 283 283
286 286 286 286 286 285 285 285 285 284 284 284 284 284 284 284 284 284 284 284 284 284 284 283 284 283 283 283 283 283 283 283 283 283 283 283 283 283 283 282 282 282
286 286 286 286 285 285 285 285 284 284 284 284 284 284 284 284 284 284 284 284 284 284 284 284 284 284 283 283 283 283 283 283 283 283 283 283 283 283 283 282 282 282
286 286 286 285 285 285 284 284 284 284 284 284 284 284 284 284 284 284 284 284 284 284 284 284 284 284 283 283 283 283 283 282 282 282 282 282 282 282 282 282 282 282
286 285 285 285 285 284 284 284 284 284 284 284 285 285 285 285 285 286 285 285 285 285 284 284 284 284 283 283 283 282 282 282 282 282 282 282 282 282 282 282 282 281
285 285 285 285 284 284 285 285 285 285 285 286 286 286 287 287 287 286 286 286 285 285 284 284 284 283 283 283 282 282 282 282 281 281 281 281 281 281 281 281 281 280
285 285 285 284 285 285 285 285 286 286 287 287 287 287 287 287 287 286 286 286 285 285 284 284 283 283 282 282 282 281 281 281 281 281 281 281 281 281 280 280 280 279
285 285 285 285 285 285 286 286 287 287 287 287 287 287 286 286 286 286 285 285 285 284 284 283 283 282 282 281 281 281 280 280 280 280 280 280 280 280 280 279 279 278
285 285 285 285 286 286 287 287 287 287 287 286 286 286 285 285 285 285 285 284 284 284 283 283 282 281 281 280 280 280 280 279 279 279 279 279 279 279 278 278 278 278
285 285 285 286 286 287 287 287 287 287 286 286 285 285 284 284 284 284 284 284 283 283 283 282 282 281 280 280 279 279 279 278 278 278 278 278 277 277 277 277 277 277
285 286 286 286 286 287 287 287 286 286 286 285 285 284 284 283 283 283 283 283 283 283 282 282 281 280 280 279 279 278 278 278 278 277 277 277 276 276 276 276 276 276
286 286 286 286 287 287 287 286 286 285 285 285 284 284 283 283 282 282 282 282 282 282 282 281 281 280 279 279 279 278 278 277 277 276 276 276 276 276 276 276 276 276
286 286 286 286 287 287 286 286 285 285 285 285 284 284 283 282 281 281 281 281 281 281 281 281 280 279 279 278 278 277 277 277 276 276 276 276 276 276 276 275 275 275
286 286 286 286 287 286 286 285 285 284 284 285 284 284 282 281 281 281 281 281 281 281 281 280 279 279 278 278 277 277 276 276 275 275 275 275 275 275 275 275 275 275
286 286 286 286 286 286 285 285 284 284 284 284 284 283 282 281 280 280 280 280 280 280 280 279 279 278 278 277 277 276 276 275 275 275 274 274 275 275 275 275 275 274
286 286 286 286 286 285 285 284 284 284 284 284 284 283 282 281 280 280 280 279 279 279 279 278 278 277 277 277 276 276 275 275 274 273 273 274 274 274 275 274 274 274
286 286 286 286 285 285 284 284 284 284 284 284 284 283 281 280 280 280 279 279 279 278 278 278 277 277 277 276 276 275 275 274 274 273 273 273 274 274 274 274 274 273
286 286 286 285 285 285 284 284 283 283 283 283 283 282 281 280 280 279 279 278 278 278 278 277 277 276 276 276 275 275 275 274 273 273 273 273 273 273 273 273 272 272
286 286 285 285 285 284 284 283 283 283 283 283 283 282 281 280 279 279 278 278 277 277 277 277 276 276 276 275 275 275 274 273 273 273 273 273 272 272 272 272 271 271
286 285 285 285 285 284 284 283 283 283 283 283 282 282 281 280 279 279 278 277 277 277 277 276 276 276 275 275 275 274 274 273 272 272 272 271 271 271 271 271 271 271
286 285 285 285 284 284 283 283 283 282 282 282 282 281 280 279 279 278 278 277 277 276 276 276 276 275 275 274 274 274 273 273 272 271 270 270 270 270 270 270 270 270
286 285 285 285 284 283 283 283 282 282 281 282 281 281 280 279 278 278 277 277 276 276 276 275 275 275 274 274 274 273 273 272 271 270 270 270 270 270 270 270 270 271
286 285 285 284 284 283 283 282 281 281 281 281 281 280 279 279 278 277 277 277 276 276 275 275 275 274 274 274 273 273 273 272 270 270 270 270 270 270 270 271 271 271
286 286 285 284 284 284 283 282 281 281 281 281 280 279 279 278 277 277 277 276 276 275 275 274 274 274 273 273 273 273 272 271 270 270 270 270 270 271 271 271 271 271
286 286 285 285 284 283 282 281 281 281 280 280 279 279 278 278 277 277 276 276 275 275 274 274 274 273 273 273 273 273 272 271 270 270 270 270 271 271 271 271 271 272
Wind_Speed
23 22 21 21 20 19 18 17 16 15 15 15 15 15 14 14 13 13 13 13 13 13 13 13 13 13 14 14 14 14 14 13 13 13 13 13 12 12 12 12 12 13
21 20 20 19 19 18 16 15 14 14 14 13 13 13 12 12 12 11 11 11 12 12 13 13 14 15 15 16 16 16 16 16 16 16 16 15 14 14 14 14 14 14
20 19 18 18 18 17 16 14 14 13 12 12 12 11 11 10 10 11 11 12 13 14 15 16 16 17 18 18 19 19 19 19 19 19 19 19 18 18 18 18 18 18
19 18 17 17 17 16 15 14 13 12 11 10 10 9 9 10 11 11 12 13 14 15 16 17 17 18 18 18 18 18 18 18 18 18 18 18 19 18 19 19 19 20
19 18 17 17 16 15 14 13 12 11 9 9 9 9 10 11 12 12 13 14 15 15 16 16 16 17 17 17 17 17 17 17 17 17 17 17 18 18 18 18 19 19
19 18 17 16 15 14 13 11 10 9 8 8 8 9 9 10 10 11 11 12 13 13 14 14 15 15 16 16 16 16 16 16 17 17 17 17 17 17 18 18 18 18
19 18 17 16 15 13 11 10 9 8 8 7 7 7 6 7 7 8 9 9 10 11 12 13 14 14 15 15 16 16 16 16 17 17 17 17 17 17 18 18 18 18
20 19 17 16 14 12 10 9 9 8 7 6 5 4 4 4 5 6 7 8 9 11 12 13 14 14 15 15 15 15 16 16 16 16 16 17 17 17 17 17 18 17
20 19 17 15 14 13 11 10 10 8 7 6 5 3 2 3 4 5 7 8 9 11 12 13 14 14 14 15 15 15 15 15 15 15 15 16 16 16 17 17 17 17
21 19 18 16 15 14 13 12 11 9 8 6 5 3 1 1 3 4 6 8 9 10 12 13 14 14 14 15 15 15 15 15 15 15 15 15 16 16 16 16 16 16
22 21 19 18 17 16 14 13 11 10 8 6 5 2 1 1 2 4 5 7 9 11 12 14 14 15 15 15 15 15 15 15 15 15 15 15 15 15 16 15 14 14
22 21 20 19 18 17 15 14 12 10 8 6 4 3 2 2 3 4 6 7 9 11 13 14 15 15 16 16 16 16 16 16 16 15 16 16 16 16 15 14 14 14
22 21 20 19 18 18 16 15 13 11 9 6 5 4 4 4 4 5 6 8 9 11 13 14 14 15 15 16 16 16 16 16 16 16 16 16 16 16 14 14 14 13
22 21 20 19 19 18 17 16 14 12 10 7 6 6 6 6 6 7 7 8 10 11 12 13 14 14 14 15 15 16 15 15 16 16 15 16 16 15 14 14 14 14
23 22 21 20 20 19 18 17 15 13 11 9 8 8 7 7 8 8 9 9 11 12 13 13 14 14 14 14 14 14 14 14 15 16 16 16 15 14 14 14 14 14
25 23 22 21 21 20 20 18 16 14 12 11 10 10 9 9 9 10 10 11 12 13 14 14 14 14 14 14 14 13 13 14 15 16 16 16 14 13 14 14 13 13
26 24 23 23 23 23 22 20 18 16 14 13 13 12 11 11 11 11 11 12 13 13 14 14 14 14 14 14 13 12 13 14 15 17 17 16 14 13 13 14 14 14
28 27 25 25 25 25 23 21 20 18 16 15 14 14 13 12 12 13 13 14 14 14 15 15 15 15 15 14 13 12 12 13 15 17 17 16 14 13 14 15 16 16
31 29 28 28 27 27 25 23 22 20 18 17 16 15 15 14 14 14 14 15 15 15 16 16 15 15 15 14 13 13 12 13 15 17 16 15 15 15 15 16 17 17
32 31 30 30 29 29 28 26 24 22 20 19 18 17 16 15 15 15 16 16 16 16 17 17 15 15 15 14 13 13 12 13 15 16 15 16 17 16 16 16 16 16
33 32 31 31 31 30 29 28 26 24 22 21 19 17 17 16 16 17 17 17 16 17 18 18 15 14 14 14 12 12 12 13 15 17 18 19 19 16 14 15 15 15
34 33 32 32 32 31 31 30 28 26 23 21 19 18 17 17 17 18 18 17 17 17 18 18 16 14 13 13 12 11 12 14 16 17 17 17 17 15 13 12 12 13
34 33 33 33 33 32 32 31 29 26 23 21 20 19 18 18 18 19 18 18 18 18 19 19 16 13 13 12 11 11 12 13 15 14 14 14 14 14 13 13 13 13
34 33 33 32 32 32 32 31 28 25 23 22 20 19 19 19 19 19 19 19 19 19 19 19 17 14 12 12 11 10 11 13 14 13 12 13 14 14 13 13 14 15
33 32 31 31 32 32 31 29 27 25 23 22 21 20 20 20 19 20 20 20 20 19 18 18 18 15 12 11 11 10 11 11 12 12 12 13 13 13 13 14 16 18
29 29 30 30 31 30 29 28 26 25 24 22 21 20 20 20 20 20 21 21 20 19 18 17 17 15 13 12 11 10 10 10 11 12 12 12 13 14 16 19 20 19
Wind_Direction
136 135 133 131 129 127 125 122 118 114 109 103 97 90 83 75 69 62 56 51 46 42 38 34 30 28 26 24 23 21 20 19 18 16 15 13 9 7 3 1 360 358
137 137 135 133 130 128 125 122 118 113 109 103 96 89 81 73 65 58 52 45 40 35 30 26 22 20 18 16 15 15 14 12 11 10 9 9 7 4 1 359 358 356
139 138 138 135 132 130 127 123 120 115 109 101 92 84 75 67 59 50 43 36 30 24 20 16 13 11 9 7 6 5 3 2 1 360 359 358 357 357 355 354 353 352
142 141 139 137 134 132 130 127 122 114 106 96 85 75 64 53 43 35 28 22 18 15 11 8 6 4 2 360 359 357 354 353 351 350 351 349 348 348 348 347 346 345
145 144 142 139 137 135 132 127 120 110 100 87 72 58 46 36 27 21 16 12 9 6 3 1 359 357 355 353 352 351 349 347 345 344 344 343 342 342 341 341 341 340
149 148 146 142 139 136 132 124 113 102 88 73 59 46 35 25 19 13 9 5 2 358 356 354 351 350 348 347 346 345 344 342 339 338 339 339 338 339 338 338 338 337
154 152 149 144 140 136 130 120 108 98 87 75 62 49 38 27 18 12 6 3 360 356 354 352 350 347 345 344 343 341 339 337 335 334 335 335 335 336 336 335 334 333
158 156 151 147 142 137 132 125 120 114 106 98 87 74 59 39 24 15 10 5 0 358 355 353 350 347 345 343 341 339 336 333 332 330 330 329 330 331 330 330 329 328
162 159 154 150 147 145 144 140 137 133 126 124 122 111 87 50 28 18 11 5 1 358 355 352 349 345 343 340 337 335 332 329 327 326 325 324 324 325 325 325 324 323
166 162 158 157 157 157 155 151 149 148 147 149 153 146 114 49 19 12 7 2 359 355 351 349 346 343 340 338 335 332 329 326 324 323 322 321 320 320 319 319 318 316
170 167 165 166 166 165 162 162 164 167 169 171 173 178 191 338 351 355 356 354 353 351 349 346 344 341 339 336 333 330 327 324 322 321 321 319 317 316 314 313 310 307
175 174 174 174 172 171 172 176 180 183 187 191 196 214 249 284 315 331 340 347 349 347 344 342 340 338 335 332 330 327 324 321 320 320 318 316 314 311 309 304 301 299
185 184 183 180 179 181 184 189 194 197 203 210 223 245 268 283 300 316 328 337 341 339 337 335 333 331 328 326 325 323 321 319 319 318 314 312 310 306 303 300 297 295
196 195 191 188 189 192 196 201 204 209 214 224 243 262 275 286 297 307 317 325 328 329 328 326 326 325 324 323 321 319 318 316 313 311 307 305 305 301 298 296 294 291
205 202 198 197 199 204 208 211 213 217 223 235 251 266 277 285 293 300 308 314 317 318 318 319 321 321 321 319 318 316 314 309 306 305 303 302 300 297 295 293 290 287
211 208 206 207 209 214 218 219 221 224 229 241 254 266 276 283 289 295 300 304 308 310 311 313 316 318 318 317 316 315 310 305 302 302 302 300 295 292 292 292 290 285
214 214 214 215 217 222 224 224 226 229 233 243 254 265 274 280 284 289 295 298 301 303 305 309 314 316 317 315 315 313 308 303 299 299 300 297 292 287 288 290 291 288
218 218 219 221 223 226 228 228 231 233 237 244 253 263 270 276 281 286 290 293 295 298 301 306 313 315 314 313 313 311 307 300 295 294 294 292 289 286 287 290 291 292
221 222 223 225 226 228 230 231 232 235 239 245 251 260 267 273 278 282 286 289 291 295 299 304 311 313 312 311 311 310 307 298 292 291 288 285 284 284 285 288 289 292
225 226 226 228 228 229 231 232 234 236 239 243 249 257 265 272 277 280 283 285 289 294 298 303 309 311 309 309 310 308 304 295 290 287 282 280 281 282 282 283 286 288
227 228 228 229 229 229 230 232 234 235 238 242 248 256 265 271 275 278 281 284 288 293 296 301 307 309 306 307 308 306 300 291 286 284 282 283 285 283 281 280 281 283
229 229 229 229 229 229 230 231 233 234 237 241 248 255 263 269 272 276 280 283 288 293 296 300 306 309 306 306 307 304 296 287 285 285 286 286 286 282 277 275 276 279
231 231 230 230 229 229 230 231 232 234 237 242 248 255 262 267 271 274 278 284 289 292 296 300 305 308 305 304 305 301 293 287 287 287 284 281 281 279 275 276 276 275
233 232 231 231 231 232 232 232 232 233 237 243 248 255 261 265 269 274 278 283 288 292 296 300 304 307 305 305 304 299 291 287 287 286 279 278 281 279 276 277 277 275
235 234 234 234 235 235 234 232 232 234 238 243 248 254 260 264 268 273 278 283 287 292 296 298 302 305 305 304 302 297 290 286 284 281 276 278 282 281 278 278 281 284
236 236 236 236 236 235 232 230 231 233 237 242 248 253 258 263 268 272 278 283 287 291 294 296 299 303 304 303 301 296 288 281 276 273 273 277 280 281 284 288 290 291